CDT,Max TemperatureF,Mean TemperatureF,Min TemperatureF,Max Dew PointF,MeanDew PointF,Min DewpointF,Max Humidity, Mean Humidity, Min Humidity, Max Sea Level PressureIn, Mean Sea Level PressureIn, Min Sea Level PressureIn, Max VisibilityMiles, Mean VisibilityMiles, Min VisibilityMiles, Max Wind SpeedMPH, Mean Wind SpeedMPH, Max Gust SpeedMPH,PrecipitationIn, CloudCover, Events, WindDirDegrees
2011-10-1,81,64,48,33,30,27,52,32,16,30.20,30.15,30.09,10,10,9,22,13,30,0.00,0,,160
2011-10-2,91,69,48,37,34,30,52,30,14,30.13,30.05,29.95,10,10,6,22,16,26,0.00,0,,160
2011-10-3,95,75,55,43,36,26,45,27,10,30.04,29.99,29.94,10,10,9,23,14,31,0.00,0,,191
2011-10-4,90,74,59,42,38,35,48,30,16,30.06,30.01,29.94,10,10,9,25,13,34,0.00,0,,190
2011-10-5,79,66,54,51,42,35,65,44,28,29.99,29.92,29.83,10,10,7,37,17,46,0.00,1,,166
2011-10-6,80,69,59,58,53,44,72,57,46,29.83,29.74,29.66,10,9,7,43,28,54,0.02,2,Rain,167
2011-10-7,82,76,69,62,59,56,76,63,41,29.90,29.77,29.69,10,10,9,34,27,44,0.04,3,,168
2011-10-8,71,62,54,61,55,50,94,83,68,30.06,29.89,29.73,10,8,2,30,22,40,0.77,5,Rain,167
2011-10-9,55,50,46,52,46,43,100,86,72,30.11,30.08,30.03,10,7,1,14,6,,0.29,6,Rain,275
2011-10-10,66,52,39,53,45,39,100,89,58,30.08,30.04,29.90,10,4,0,17,7,22,0.00,1,Fog,196
2011-10-11,73,62,53,56,52,49,94,78,49,29.88,29.78,29.68,10,8,2,22,13,30,0.01,0,,177
2011-10-12,73,62,50,48,39,27,86,50,20,29.98,29.85,29.75,10,10,7,29,13,41,0.00,0,,311
2011-10-13,75,58,41,38,33,26,73,45,17,30.05,29.95,29.85,10,10,10,12,8,18,0.00,0,,261
2011-10-14,71,58,44,38,33,26,79,48,20,30.08,29.98,29.87,10,10,7,23,10,29,0.00,0,,55
2011-10-15,80,62,44,45,37,32,68,45,24,30.11,30.00,29.88,10,10,10,22,10,28,0.00,0,,189
2011-10-16,68,56,44,45,37,32,68,47,28,30.04,29.95,29.81,10,10,8,33,17,39,0.00,0,,33
2011-10-17,64,50,37,41,35,31,82,63,31,30.16,29.99,29.86,10,10,10,22,10,29,0.01,3,Rain,21
2011-10-18,59,47,37,41,31,22,93,61,27,30.23,30.18,30.13,10,10,6,30,16,43,0.00,2,,333
2011-10-19,61,48,35,28,25,23,70,48,25,30.22,30.13,30.06,10,10,10,21,12,39,0.00,0,,341
2011-10-20,66,49,32,32,28,25,75,49,22,30.07,30.03,29.96,10,9,2,15,8,24,0.00,0,,167
2011-10-21,79,58,39,34,31,27,73,43,15,30.13,30.07,30.03,10,10,7,13,9,,0.00,0,,190
2011-10-22,71,57,43,41,37,33,71,51,32,30.07,30.03,29.99,10,10,8,10,7,,0.00,0,,189
2011-10-23,81,60,39,39,33,27,79,42,15,30.09,30.03,29.97,10,10,8,20,8,29,0.00,0,,275
2011-10-24,84,65,46,40,36,29,56,33,19,30.06,29.94,29.76,10,10,9,34,15,40,0.00,0,,185
2011-10-25,78,66,52,40,36,28,59,36,20,29.94,29.81,29.70,10,10,10,24,19,32,0.00,0,,338
2011-10-26,53,44,37,38,35,32,93,72,50,30.22,30.11,29.92,10,10,7,26,21,34,0.04,7,Rain,10
2011-10-27,51,40,30,36,28,21,93,68,32,30.25,30.20,30.15,10,10,8,12,8,,0.02,1,,334
2011-10-28,61,46,32,27,23,16,82,49,18,30.31,30.25,30.20,10,10,10,9,7,,0.00,0,,268
2011-10-29,69,53,37,37,31,20,65,47,26,30.17,30.00,29.83,10,10,10,25,13,34,0.00,0,,209
2011-10-30,63,49,36,35,26,20,76,46,20,30.21,30.12,29.92,10,10,10,16,9,,0.00,0,,305
2011-10-31,78,58,37,37,28,23,65,37,13,30.13,29.99,29.85,10,10,9,24,13,31,0.00,0,,206